星链-1629 (STARLINK-1629 )

导读

STARLINK-1629是美国太空探索技术公司(SpaceX)星链(Starlink)卫星互联网项目的卫星,于北京时间2020年8月18日发射升空,属于星链低轨卫星星座的组成部分,旨在为全球提供高速低延迟互联网服务,尤其服务于偏远地区及网络基础设施薄弱区域。

基本信息
目录编号:
46150
目录名称:
STARLINK-1629
国际标识:
2020-057AK
轨道中心:
EARTH
卫星名称:
星链-1629
卫星全名:
星链-1629 (STARLINK-1629 )
卫星状态:
已陨落 最后检测时间 2026-02-16
发射日期:
2020-08-18 UTC
国别 :
美国 (US)
星等 :
--
轨道信息
数据来源 国际轨道数据
星历时间: 2026-02-16T11:59:59+0800
轨道信息已过期122天
半长轴: 6544.041km
偏心率: 0.0004473
轨道倾角: 53.005°
近地点辐角 228.195°
升交点赤经 328.182°
平近点角 131.872°
近地点: 162.976km
远地点: 168.832km
周期: 87.807分钟
每日圈数: 16.39962
详细信息
固有亮度:
5
最大亮度:
2.5
卫星平台:
Starlink V1.0
覆盖范围:
全球
运营商:
太空探索技术公司
运营商所在国:
美国
制造商(研发单位):
太空探索技术公司
制造商所在国:
美国
使用方式:
暂无
卫星简介
星链(Starlink)计划是由太空探索技术公司(SpaceX)提出的一个巨型低轨卫星互联网星座项目,计划在2019年至2024年间在太空搭建由约1.2万颗卫星组成的“星链”网络,其中1584颗将部署在地球上空550千米处的近地轨道,并从2020年开始工作。该卫星仍在工作。